| time (UTC) | temp C | wind direction | speed KPH | gust KPH | rain 1hr cm | rain 24hr cm | rain mn cm | humidity % | barometer mb |
| 20260506082127 | 11 | 208 | 0.0 | 0.0 | 0.00 | 0.00 | 0.00 | 92 | 1017.9 |
| 20260506081131 | 11 | 208 | 0.0 | 0.0 | 0.00 | 0.00 | 0.00 | 91 | 1017.8 |
| 20260506080150 | 11 | 217 | 0.0 | 0.0 | 0.00 | 0.00 | 0.00 | 91 | 1017.8 |
| 20260506073140 | 11 | 217 | 0.0 | 0.0 | 0.00 | 0.00 | 0.00 | 90 | 1017.5 |
| 20260506072134 | 11 | 218 | 0.0 | 0.0 | 0.00 | 0.00 | 0.00 | 90 | 1017.4 |
| 20260506071134 | 11 | 217 | 0.0 | 0.0 | 0.00 | 0.00 | 0.00 | 90 | 1017.3 |
| 20260506070132 | 11 | 218 | 0.0 | 0.0 | 0.00 | 0.00 | 0.00 | 89 | 1017.3 |
| 20260506062138 | 12 | 204 | 0.0 | 0.0 | 0.00 | 0.00 | 0.00 | 88 | 1016.9 |
| 20260506061138 | 12 | 212 | 0.0 | 0.0 | 0.00 | 0.00 | 0.00 | 87 | 1016.8 |
| 20260506060140 | 12 | 216 | 0.0 | 0.0 | 0.00 | 0.00 | 0.00 | 87 | 1016.7 |
| 20260506051145 | 13 | 215 | 0.0 | 1.6 | 0.00 | 0.00 | 0.00 | 85 | 1016.4 |
| 20260506050145 | 13 | 217 | 0.0 | 0.0 | 0.00 | 0.00 | 0.00 | 84 | 1016.3 |
| 20260506045127 | 13 | 220 | 0.0 | 0.0 | 0.00 | 0.00 | 0.00 | 84 | 1016.3 |
| 20260506044129 | 14 | 216 | 0.0 | 4.8 | 0.00 | 0.00 | 0.00 | 83 | 1016.3 |
| 20260506043132 | 14 | 209 | 0.0 | 0.0 | 0.00 | 0.00 | 0.00 | 83 | 1016.2 |
| 20260506042136 | 14 | 209 | 0.0 | 0.0 | 0.00 | 0.00 | 0.00 | 83 | 1016.1 |
| 20260506041135 | 15 | 207 | 0.0 | 0.0 | 0.00 | 0.00 | 0.00 | 83 | 1016.1 |
| 20260506040138 | 15 | 206 | 0.0 | 0.0 | 0.00 | 0.00 | 0.00 | 82 | 1016.0 |
| 20260506035133 | 15 | 205 | 0.0 | 0.0 | 0.00 | 0.00 | 0.00 | 82 | 1015.9 |
| 20260506034136 | 15 | 205 | 0.0 | 0.0 | 0.00 | 0.00 | 0.00 | 81 | 1015.8 |
| 20260506033142 | 16 | 205 | 0.0 | 0.0 | 0.00 | 0.00 | 0.00 | 81 | 1015.6 |
| 20260506032138 | 16 | 205 | 0.0 | 0.0 | 0.00 | 0.00 | 0.00 | 80 | 1015.5 |
| 20260506031141 | 16 | 205 | 0.0 | 0.0 | 0.00 | 0.00 | 0.00 | 79 | 1015.4 |
| 20260506030150 | 16 | 205 | 0.0 | 0.0 | 0.00 | 0.00 | 0.00 | 78 | 1015.4 |
| 20260506025125 | 16 | 198 | 0.0 | 0.0 | 0.00 | 0.00 | 0.00 | 78 | 1015.3 |
| 20260506024143 | 16 | 191 | 0.0 | 1.6 | 0.00 | 0.00 | 0.00 | 78 | 1015.4 |
| 20260506023127 | 16 | 198 | 0.0 | 0.0 | 0.00 | 0.00 | 0.00 | 77 | 1015.3 |
| 20260506022129 | 17 | 204 | 0.0 | 4.8 | 0.00 | 0.00 | 0.00 | 77 | 1015.4 |
| 20260506021126 | 17 | 196 | 0.0 | 0.0 | 0.00 | 0.00 | 0.00 | 77 | 1015.4 |
| 20260506020144 | 17 | 192 | 0.0 | 9.7 | 0.00 | 0.00 | 0.00 | 77 | 1015.4 |
| 20260506015141 | 17 | 237 | 0.0 | 0.0 | 0.00 | 0.00 | 0.00 | 77 | 1015.3 |
| 20260506014142 | 17 | 217 | 0.0 | 4.8 | 0.00 | 0.00 | 0.00 | 77 | 1015.3 |
| 20260506013124 | 17 | 203 | 6.4 | 8.0 | 0.00 | 0.00 | 0.00 | 76 | 1015.3 |
| 20260506012124 | 17 | 199 | 0.0 | 9.7 | 0.00 | 0.00 | 0.00 | 76 | 1015.3 |
| 20260506011142 | 17 | 196 | 0.0 | 11.3 | 0.00 | 0.00 | 0.00 | 77 | 1015.4 |
| 20260506010143 | 17 | 246 | 0.0 | 9.7 | 0.00 | 0.00 | 0.00 | 75 | 1015.5 |
| 20260506005136 | 17 | 211 | 4.8 | 9.7 | 0.00 | 0.00 | 0.00 | 75 | 1015.4 |
| 20260506004138 | 17 | 248 | 0.0 | 9.7 | 0.00 | 0.00 | 0.00 | 75 | 1015.5 |
| 20260506003135 | 17 | 216 | 1.6 | 9.7 | 0.00 | 0.00 | 0.00 | 75 | 1015.6 |
| 20260506002137 | 17 | 276 | 1.6 | 14.5 | 0.00 | 0.00 | 0.00 | 76 | 1015.7 |
| 20260506001141 | 17 | 246 | 1.6 | 11.3 | 0.00 | 0.00 | 0.00 | 75 | 1015.6 |
| 20260506000140 | 17 | 209 | 0.0 | 12.9 | 0.00 | 0.00 | 0.00 | 75 | 1015.6 |
| 20260505235127 | 17 | 275 | 0.0 | 17.7 | 0.00 | 0.00 | 0.00 | 75 | 1015.7 |
| 20260505234130 | 17 | 286 | 0.0 | 14.5 | 0.00 | 0.00 | 0.00 | 75 | 1015.8 |
| 20260505233127 | 17 | 309 | 4.8 | 19.3 | 0.00 | 0.00 | 0.00 | 75 | 1016.0 |
| 20260505232127 | 17 | 297 | 6.4 | 11.3 | 0.00 | 0.00 | 0.00 | 75 | 1016.0 |
| 20260505231128 | 17 | 205 | 4.8 | 11.3 | 0.00 | 0.00 | 0.00 | 76 | 1016.1 |
| 20260505230142 | 17 | 206 | 1.6 | 6.4 | 0.00 | 0.00 | 0.00 | 77 | 1016.2 |
| 20260505225135 | 17 | 281 | 1.6 | 20.9 | 0.00 | 0.00 | 0.00 | 76 | 1016.2 |
| 20260505224136 | 16 | 249 | 0.0 | 9.7 | 0.00 | 0.00 | 0.00 | 77 | 1016.4 |
| 20260505223138 | 16 | 200 | 0.0 | 8.0 | 0.00 | 0.00 | 0.00 | 77 | 1016.4 |
| 20260505222139 | 16 | 188 | 0.0 | 9.7 | 0.00 | 0.00 | 0.00 | 78 | 1016.6 |
| 20260505221137 | 16 | 296 | 3.2 | 14.5 | 0.00 | 0.00 | 0.00 | 76 | 1016.6 |
| 20260505220136 | 16 | 238 | 0.0 | 8.0 | 0.00 | 0.00 | 0.00 | 78 | 1016.7 |
| 20260505215128 | 16 | 243 | 1.6 | 8.0 | 0.00 | 0.00 | 0.00 | 78 | 1016.7 |
| 20260505214124 | 16 | 249 | 0.0 | 4.8 | 0.00 | 0.00 | 0.00 | 78 | 1016.8 |
| 20260505213121 | 16 | 243 | 1.6 | 8.0 | 0.00 | 0.00 | 0.00 | 79 | 1016.8 |
| 20260505212142 | 15 | 187 | 0.0 | 11.3 | 0.00 | 0.00 | 0.00 | 78 | 1016.9 |
| 20260505211126 | 15 | 246 | 0.0 | 9.7 | 0.00 | 0.00 | 0.00 | 79 | 1016.9 |
| 20260505210141 | 15 | 252 | 0.0 | 0.0 | 0.00 | 0.00 | 0.00 | 80 | 1016.9 |
| 20260505205134 | 15 | 234 | 0.0 | 0.0 | 0.00 | 0.00 | 0.00 | 79 | 1016.9 |
| 20260505204135 | 15 | 236 | 1.6 | 8.0 | 0.00 | 0.00 | 0.00 | 80 | 1017.0 |
| 20260505203136 | 15 | 192 | 0.0 | 0.0 | 0.00 | 0.00 | 0.00 | 80 | 1017.0 |
| 20260505202130 | 15 | 229 | 0.0 | 0.0 | 0.00 | 0.00 | 0.00 | 81 | 1017.0 |
| 20260505201131 | 15 | 211 | 0.0 | 6.4 | 0.00 | 0.00 | 0.00 | 81 | 1017.0 |
| 20260505200134 | 15 | 233 | 0.0 | 1.6 | 0.00 | 0.00 | 0.00 | 81 | 1016.9 |
| 20260505195127 | 15 | 294 | 1.6 | 11.3 | 0.00 | 0.00 | 0.00 | 81 | 1017.0 |
| 20260505194131 | 15 | 229 | 0.0 | 0.0 | 0.00 | 0.00 | 0.00 | 81 | 1017.0 |
| 20260505193125 | 15 | 227 | 0.0 | 0.0 | 0.00 | 0.00 | 0.00 | 82 | 1017.1 |
| 20260505192125 | 14 | 209 | 0.0 | 0.0 | 0.00 | 0.00 | 0.00 | 82 | 1017.0 |
| 20260505191125 | 14 | 192 | 0.0 | 4.8 | 0.00 | 0.00 | 0.00 | 82 | 1017.0 |
| 20260505190143 | 14 | 200 | 0.0 | 0.0 | 0.00 | 0.00 | 0.00 | 83 | 1017.0 |
| 20260505185134 | 14 | 250 | 0.0 | 4.8 | 0.00 | 0.00 | 0.00 | 83 | 1017.1 |
| 20260505184136 | 13 | 193 | 0.0 | 0.0 | 0.00 | 0.00 | 0.00 | 84 | 1017.1 |
| 20260505183139 | 13 | 213 | 0.0 | 0.0 | 0.00 | 0.00 | 0.00 | 84 | 1017.0 |
| 20260505182138 | 13 | 232 | 0.0 | 0.0 | 0.00 | 0.00 | 0.00 | 84 | 1017.0 |
| 20260505181136 | 13 | 240 | 0.0 | 0.0 | 0.00 | 0.00 | 0.00 | 85 | 1016.9 |
| 20260505180152 | 13 | 237 | 0.0 | 0.0 | 0.00 | 0.00 | 0.00 | 84 | 1017.0 |
| 20260505175126 | 13 | 227 | 0.0 | 0.0 | 0.00 | 0.00 | 0.00 | 85 | 1016.9 |
| 20260505174127 | 13 | 215 | 0.0 | 0.0 | 0.00 | 0.00 | 0.00 | 86 | 1017.0 |
| 20260505173124 | 13 | 202 | 0.0 | 0.0 | 0.00 | 0.00 | 0.00 | 86 | 1016.9 |
| 20260505172125 | 13 | 231 | 0.0 | 0.0 | 0.00 | 0.00 | 0.00 | 87 | 1016.8 |
| 20260505171129 | 13 | 191 | 0.0 | 0.0 | 0.00 | 0.00 | 0.00 | 87 | 1016.8 |
| 20260505170149 | 13 | 192 | 0.0 | 0.0 | 0.00 | 0.00 | 0.00 | 87 | 1016.7 |
| 20260505165138 | 13 | 190 | 0.0 | 0.0 | 0.00 | 0.00 | 0.00 | 87 | 1016.7 |
| 20260505164139 | 13 | 178 | 0.0 | 0.0 | 0.00 | 0.00 | 0.00 | 87 | 1016.7 |
| 20260505163140 | 13 | 188 | 0.0 | 0.0 | 0.00 | 0.00 | 0.00 | 87 | 1016.6 |
| 20260505162140 | 13 | 188 | 0.0 | 0.0 | 0.00 | 0.00 | 0.00 | 87 | 1016.6 |
| 20260505161138 | 12 | 188 | 0.0 | 0.0 | 0.00 | 0.00 | 0.00 | 87 | 1016.5 |
| 20260505160136 | 12 | 187 | 0.0 | 0.0 | 0.00 | 0.00 | 0.00 | 87 | 1016.4 |
| 20260505153127 | 12 | 188 | 0.0 | 0.0 | 0.00 | 0.00 | 0.00 | 88 | 1016.3 |
| 20260505152126 | 12 | 187 | 0.0 | 0.0 | 0.00 | 0.00 | 0.00 | 89 | 1016.4 |
| 20260505151126 | 12 | 186 | 0.0 | 0.0 | 0.00 | 0.00 | 0.00 | 89 | 1016.2 |
| 20260505150146 | 12 | 202 | 0.0 | 0.0 | 0.00 | 0.00 | 0.00 | 89 | 1016.1 |
| 20260505140135 | 12 | 202 | 0.0 | 0.0 | 0.00 | 0.00 | 0.00 | 89 | 1015.5 |
| 20260505130148 | 12 | 188 | 0.0 | 0.0 | 0.00 | 0.00 | 0.00 | 89 | 1014.9 |
| 20260505124138 | 12 | 188 | 0.0 | 0.0 | 0.00 | 0.00 | 0.00 | 90 | 1014.8 |
| 20260505123137 | 12 | 188 | 0.0 | 0.0 | 0.00 | 0.00 | 0.00 | 90 | 1014.8 |
| 20260505122139 | 12 | 188 | 0.0 | 0.0 | 0.00 | 0.00 | 0.00 | 90 | 1014.8 |
| 20260505121122 | 12 | 188 | 0.0 | 0.0 | 0.00 | 0.00 | 0.00 | 90 | 1014.7 |
| 20260505120143 | 12 | 187 | 0.0 | 0.0 | 0.00 | 0.00 | 0.00 | 90 | 1014.7 |
| 20260505115129 | 12 | 187 | 0.0 | 0.0 | 0.00 | 0.00 | 0.00 | 90 | 1014.6 |
| 20260505114132 | 12 | 186 | 0.0 | 0.0 | 0.00 | 0.00 | 0.00 | 90 | 1014.6 |
| 20260505113130 | 12 | 186 | 0.0 | 0.0 | 0.00 | 0.00 | 0.00 | 90 | 1014.5 |
| 20260505112131 | 12 | 186 | 0.0 | 0.0 | 0.00 | 0.00 | 0.00 | 90 | 1014.5 |
| 20260505111130 | 12 | 185 | 0.0 | 0.0 | 0.00 | 0.00 | 0.00 | 90 | 1014.5 |
| 20260505110150 | 12 | 169 | 0.0 | 0.0 | 0.00 | 0.00 | 0.00 | 90 | 1014.4 |
| 20260505102141 | 12 | 166 | 0.0 | 0.0 | 0.00 | 0.00 | 0.00 | 91 | 1014.1 |
| 20260505101123 | 12 | 164 | 0.0 | 0.0 | 0.00 | 0.00 | 0.00 | 91 | 1014.2 |
| 20260505100142 | 12 | 232 | 0.0 | 0.0 | 0.00 | 0.00 | 0.00 | 91 | 1014.1 |
| 20260505095129 | 12 | 248 | 0.0 | 0.0 | 0.00 | 0.00 | 0.00 | 91 | 1014.0 |
| 20260505094127 | 12 | 178 | 0.0 | 0.0 | 0.00 | 0.00 | 0.00 | 91 | 1014.0 |
| 20260505093129 | 12 | 174 | 0.0 | 0.0 | 0.00 | 0.00 | 0.00 | 91 | 1013.9 |
| 20260505092129 | 12 | 173 | 0.0 | 0.0 | 0.00 | 0.00 | 0.00 | 91 | 1013.8 |
| 20260505091131 | 12 | 163 | 0.0 | 0.0 | 0.00 | 0.00 | 0.00 | 91 | 1013.8 |
| 20260505090146 | 12 | 185 | 0.0 | 0.0 | 0.00 | 0.00 | 0.00 | 91 | 1013.8 |
| 20260505085138 | 12 | 196 | 0.0 | 0.0 | 0.00 | 0.00 | 0.00 | 91 | 1013.7 |
| 20260505084138 | 11 | 206 | 0.0 | 0.0 | 0.00 | 0.00 | 0.00 | 92 | 1013.7 |
| 20260505083123 | 11 | 194 | 0.0 | 0.0 | 0.00 | 0.00 | 0.00 | 92 | 1013.6 |